| time (UTC) | temp F | wind direction | speed MPH | gust MPH | rain 1hr in | rain 24hr in | rain mn in | humidity % | barometer mb |
| 20260509161515 | 76 | 235 | 3.0 | 8.0 | 0.00 | 0.00 | 0.00 | 44 | 1012.4 |
| 20260509160020 | 77 | 246 | 3.0 | 8.0 | 0.00 | 0.00 | 0.00 | 40 | 1012.4 |
| 20260509154514 | 77 | 256 | 2.0 | 9.0 | 0.00 | 0.00 | 0.00 | 39 | 1012.4 |
| 20260509153022 | 78 | 248 | 2.0 | 9.0 | 0.00 | 0.00 | 0.00 | 37 | 1012.3 |
| 20260509151514 | 79 | 245 | 3.0 | 9.0 | 0.00 | 0.00 | 0.00 | 35 | 1012.2 |
| 20260509150012 | 80 | 246 | 3.0 | 7.0 | 0.00 | 0.00 | 0.00 | 33 | 1012.4 |
| 20260509144511 | 81 | 274 | 1.0 | 9.0 | 0.00 | 0.00 | 0.00 | 33 | 1012.3 |
| 20260509143114 | 81 | 253 | 3.0 | 10.0 | 0.00 | 0.00 | 0.00 | 30 | 1012.3 |
| 20260509141510 | 81 | 262 | 3.0 | 7.0 | 0.00 | 0.00 | 0.00 | 29 | 1012.4 |
| 20260509140009 | 82 | 169 | 3.0 | 8.0 | 0.00 | 0.00 | 0.00 | 28 | 1012.4 |
| 20260509134507 | 82 | 252 | 2.0 | 8.0 | 0.00 | 0.00 | 0.00 | 28 | 1012.5 |
| 20260509133006 | 82 | 166 | 2.0 | 9.0 | 0.00 | 0.00 | 0.00 | 29 | 1012.6 |
| 20260509131504 | 81 | 221 | 1.0 | 7.0 | 0.00 | 0.00 | 0.00 | 31 | 1012.6 |
| 20260509130008 | 81 | 233 | 1.0 | 9.0 | 0.00 | 0.00 | 0.00 | 31 | 1012.8 |
| 20260509124603 | 81 | 137 | 2.0 | 8.0 | 0.00 | 0.00 | 0.00 | 33 | 1013.0 |
| 20260509123121 | 81 | 243 | 3.0 | 12.0 | 0.00 | 0.00 | 0.00 | 32 | 1013.2 |
| 20260509121557 | 80 | 116 | 3.0 | 10.0 | 0.00 | 0.00 | 0.00 | 34 | 1013.3 |
| 20260509120058 | 80 | 167 | 2.0 | 16.0 | 0.00 | 0.00 | 0.00 | 34 | 1013.2 |
| 20260509114626 | 80 | 249 | 2.0 | 12.0 | 0.00 | 0.00 | 0.00 | 35 | 1013.2 |
| 20260509113122 | 79 | 142 | 3.0 | 10.0 | 0.00 | 0.00 | 0.00 | 35 | 1013.4 |
| 20260509111554 | 80 | 113 | 2.0 | 15.0 | 0.00 | 0.00 | 0.00 | 36 | 1013.5 |
| 20260509110059 | 80 | 215 | 2.0 | 8.0 | 0.00 | 0.00 | 0.00 | 36 | 1013.5 |
| 20260509104552 | 79 | 125 | 2.0 | 11.0 | 0.00 | 0.00 | 0.00 | 37 | 1013.6 |
| 20260509103057 | 79 | 123 | 2.0 | 16.0 | 0.00 | 0.00 | 0.00 | 38 | 1013.6 |
| 20260509101559 | 80 | 140 | 1.0 | 9.0 | 0.00 | 0.00 | 0.00 | 37 | 1013.7 |
| 20260509100048 | 80 | 220 | 2.0 | 8.0 | 0.00 | 0.00 | 0.00 | 32 | 1013.9 |
| 20260509094544 | 81 | 108 | 1.0 | 12.0 | 0.00 | 0.00 | 0.00 | 32 | 1014.2 |
| 20260509093120 | 81 | 236 | 1.0 | 9.0 | 0.00 | 0.00 | 0.00 | 32 | 1014.3 |
| 20260509091544 | 80 | 180 | 1.0 | 10.0 | 0.00 | 0.00 | 0.00 | 34 | 1014.3 |
| 20260509090134 | 80 | 83 | 2.0 | 6.0 | 0.00 | 0.00 | 0.00 | 32 | 1014.4 |
| 20260509084549 | 80 | 234 | 1.0 | 7.0 | 0.00 | 0.00 | 0.00 | 35 | 1014.4 |
| 20260509083008 | 79 | 146 | 1.0 | 6.0 | 0.00 | 0.00 | 0.00 | 35 | 1014.4 |
| 20260509081559 | 78 | 243 | 1.0 | 5.0 | 0.00 | 0.00 | 0.00 | 37 | 1014.5 |
| 20260509080022 | 78 | 264 | 0.0 | 7.0 | 0.00 | 0.00 | 0.00 | 39 | 1014.3 |
| 20260509074616 | 77 | 220 | 0.0 | 4.0 | 0.00 | 0.00 | 0.00 | 44 | 1014.4 |
| 20260509073047 | 75 | 249 | 0.0 | 4.0 | 0.00 | 0.00 | 0.00 | 47 | 1014.5 |
| 20260509071543 | 73 | 252 | 0.0 | 6.0 | 0.00 | 0.00 | 0.00 | 51 | 1014.6 |
| 20260509070037 | 72 | 303 | 0.0 | 5.0 | 0.00 | 0.00 | 0.00 | 57 | 1014.6 |
| 20260509064541 | 72 | 254 | 2.0 | 6.0 | 0.00 | 0.00 | 0.00 | 57 | 1014.6 |
| 20260509063035 | 70 | 283 | 0.0 | 1.0 | 0.00 | 0.00 | 0.00 | 59 | 1014.4 |
| 20260509061529 | 68 | 283 | 0.0 | 1.0 | 0.00 | 0.00 | 0.00 | 67 | 1014.6 |
| 20260509060024 | 66 | 283 | 0.0 | 2.0 | 0.00 | 0.00 | 0.00 | 70 | 1014.6 |
| 20260509054523 | 65 | 282 | 0.0 | 1.0 | 0.00 | 0.00 | 0.00 | 74 | 1014.5 |
| 20260509053020 | 64 | 282 | 0.0 | 1.0 | 0.00 | 0.00 | 0.00 | 75 | 1014.5 |
| 20260509051517 | 64 | 282 | 0.0 | 1.0 | 0.00 | 0.00 | 0.00 | 76 | 1014.7 |
| 20260509050023 | 63 | 282 | 0.0 | 1.0 | 0.00 | 0.00 | 0.00 | 76 | 1014.7 |
| 20260509044513 | 63 | 282 | 0.0 | 0.0 | 0.00 | 0.00 | 0.00 | 75 | 1014.8 |
| 20260509043012 | 62 | 282 | 0.0 | 1.0 | 0.00 | 0.00 | 0.00 | 76 | 1014.8 |
| 20260509041519 | 62 | 282 | 0.0 | 2.0 | 0.00 | 0.00 | 0.00 | 77 | 1014.7 |
| 20260509040011 | 61 | 282 | 0.0 | 1.0 | 0.00 | 0.00 | 0.00 | 76 | 1014.7 |
| 20260509034508 | 61 | 282 | 0.0 | 0.0 | 0.00 | 0.00 | 0.00 | 75 | 1014.6 |
| 20260509033004 | 61 | 282 | 0.0 | 1.0 | 0.00 | 0.00 | 0.00 | 74 | 1014.5 |
| 20260509031512 | 61 | 282 | 0.0 | 1.0 | 0.00 | 0.00 | 0.00 | 74 | 1014.3 |
| 20260509030004 | 61 | 282 | 0.0 | 0.0 | 0.00 | 0.00 | 0.00 | 75 | 1014.5 |
| 20260509024600 | 62 | 282 | 0.0 | 1.0 | 0.00 | 0.00 | 0.00 | 76 | 1014.2 |
| 20260509023114 | 62 | 282 | 0.0 | 0.0 | 0.00 | 0.00 | 0.00 | 76 | 1014.3 |
| 20260509021559 | 62 | 282 | 0.0 | 0.0 | 0.00 | 0.00 | 0.00 | 76 | 1014.3 |
| 20260509020059 | 62 | 282 | 0.0 | 0.0 | 0.00 | 0.00 | 0.00 | 76 | 1014.4 |
| 20260509014554 | 62 | 282 | 0.0 | 0.0 | 0.00 | 0.00 | 0.00 | 75 | 1014.6 |
| 20260509013052 | 63 | 282 | 0.0 | 0.0 | 0.00 | 0.00 | 0.00 | 76 | 1014.8 |
| 20260509011549 | 63 | 282 | 0.0 | 0.0 | 0.00 | 0.00 | 0.00 | 75 | 1015.1 |
| 20260509010049 | 63 | 282 | 0.0 | 1.0 | 0.00 | 0.00 | 0.00 | 74 | 1015.4 |
| 20260509004545 | 63 | 282 | 0.0 | 0.0 | 0.00 | 0.00 | 0.00 | 74 | 1015.5 |
| 20260509003048 | 64 | 282 | 0.0 | 1.0 | 0.00 | 0.00 | 0.00 | 73 | 1015.6 |
| 20260509001541 | 64 | 282 | 0.0 | 0.0 | 0.00 | 0.00 | 0.00 | 72 | 1016.0 |
| 20260509000043 | 64 | 282 | 0.0 | 0.0 | 0.00 | 0.00 | 0.00 | 71 | 1016.1 |
| 20260508234536 | 65 | 282 | 0.0 | 1.0 | 0.00 | 0.00 | 0.00 | 70 | 1016.0 |
| 20260508233034 | 65 | 282 | 0.0 | 0.0 | 0.00 | 0.00 | 0.00 | 68 | 1016.2 |
| 20260508231532 | 66 | 282 | 0.0 | 0.0 | 0.00 | 0.00 | 0.00 | 67 | 1016.5 |
| 20260508230031 | 66 | 282 | 0.0 | 0.0 | 0.00 | 0.00 | 0.00 | 65 | 1016.4 |
| 20260508224528 | 66 | 282 | 0.0 | 0.0 | 0.00 | 0.00 | 0.00 | 65 | 1016.6 |
| 20260508223033 | 67 | 282 | 0.0 | 1.0 | 0.00 | 0.00 | 0.00 | 64 | 1016.6 |
| 20260508221529 | 67 | 282 | 0.0 | 1.0 | 0.00 | 0.00 | 0.00 | 64 | 1016.4 |
| 20260508214524 | 67 | 282 | 0.0 | 2.0 | 0.00 | 0.00 | 0.00 | 61 | 1016.6 |
| 20260508213022 | 67 | 283 | 0.0 | 4.0 | 0.00 | 0.00 | 0.00 | 59 | 1016.5 |
| 20260508211524 | 67 | 285 | 1.0 | 3.0 | 0.00 | 0.00 | 0.00 | 59 | 1016.6 |
| 20260508210019 | 67 | 285 | 0.0 | 1.0 | 0.00 | 0.00 | 0.00 | 58 | 1016.5 |
| 20260508204521 | 67 | 285 | 0.0 | 2.0 | 0.00 | 0.00 | 0.00 | 56 | 1016.7 |
| 20260508203017 | 68 | 288 | 0.0 | 2.0 | 0.00 | 0.00 | 0.00 | 54 | 1016.8 |
| 20260508201525 | 68 | 281 | 1.0 | 3.0 | 0.00 | 0.00 | 0.00 | 52 | 1016.7 |
| 20260508200016 | 68 | 274 | 0.0 | 1.0 | 0.00 | 0.00 | 0.00 | 50 | 1016.0 |
| 20260508194516 | 68 | 274 | 0.0 | 2.0 | 0.00 | 0.00 | 0.00 | 50 | 1016.0 |
| 20260508193015 | 68 | 274 | 0.0 | 3.0 | 0.00 | 0.00 | 0.00 | 50 | 1016.2 |
| 20260508191518 | 68 | 274 | 0.0 | 2.0 | 0.00 | 0.00 | 0.00 | 51 | 1015.8 |
| 20260508190014 | 68 | 274 | 0.0 | 1.0 | 0.00 | 0.00 | 0.00 | 59 | 1015.8 |
| 20260508184519 | 68 | 274 | 0.0 | 1.0 | 0.00 | 0.00 | 0.00 | 60 | 1015.7 |
| 20260508183013 | 68 | 274 | 0.0 | 1.0 | 0.00 | 0.00 | 0.00 | 58 | 1015.4 |
| 20260508181511 | 68 | 274 | 1.0 | 4.0 | 0.00 | 0.00 | 0.00 | 58 | 1015.6 |
| 20260508180012 | 69 | 254 | 0.0 | 2.0 | 0.00 | 0.00 | 0.00 | 56 | 1014.8 |
| 20260508174524 | 70 | 245 | 0.0 | 1.0 | 0.00 | 0.00 | 0.00 | 50 | 1014.7 |
| 20260508173010 | 70 | 245 | 0.0 | 2.0 | 0.00 | 0.00 | 0.00 | 49 | 1014.3 |
| 20260508171510 | 71 | 245 | 0.0 | 5.0 | 0.00 | 0.00 | 0.00 | 48 | 1014.3 |
| 20260508170009 | 71 | 264 | 1.0 | 7.0 | 0.00 | 0.00 | 0.00 | 48 | 1014.6 |
| 20260508164509 | 71 | 246 | 0.0 | 4.0 | 0.00 | 0.00 | 0.00 | 47 | 1014.3 |
| 20260508163012 | 72 | 249 | 1.0 | 7.0 | 0.00 | 0.00 | 0.00 | 46 | 1014.1 |